Home > Weather > Leawood > Past weeks

Flag for U.S.A. Weather for the Past 2 Weeks in Leawood, Kansas, U.S.A.

Now
32 °F

Sunny.


Feels Like: 24 °F
Forecast: 21 / 37 °F
Wind: 9 mph from East

Location: Johnson County Executive Airport

Current Time: Feb 11, 2016 at 12:23:05 PM

Latest Report: Feb 11, 2016 at 11:53 AM


Visibility: 10 mi

Pressure: 30.29 "Hg

Humidity: 59%

Dew point: 19 °F

Location of LeawoodLocation

Historic Weather in Leawood — Graph

°F

Leawood Temperature Yesterday

Maximum temperature yesterday: 48 °F (at 4:53 PM)
Minimum temperature yesterday: 18 °F (at 12:53 AM)
Average temperature yesterday: 32 °F

High & Low Weather Summary for the Past Weeks

 TemperatureHumidityPressure
High66 °F (Jan 29, 3:53 PM)96% (Feb 2, 6:53 AM)30.45 "Hg (Feb 2, 6:53 AM)
Low18 °F (Feb 4, 3:53 AM)20% (Feb 7, 4:53 PM)29.35 "Hg (Feb 2, 1:53 PM)
Average37 °F62%30.01 "Hg
* Reported Jan 27 10:53 AM — Feb 11 10:53 AM, Leawood, Weather by CustomWeather, © 2016

Note: Actual official high and low records may vary slightly from our data, if they occured in-between our weather recording intervals... More about our weather records

Advertising

Leawood Weather History for the Previous 24 Hours

 ConditionsComfort  
Time TempWeatherWind HumidityBarometerVisibility
10:53 AM
Thu, Feb 11
31 °FSunny.8 mph59%30.32 "Hg10 mi
9:53 AM27 °FSunny.7 mph69%30.32 "Hg10 mi
8:53 AM24 °FSunny.12 mph77%30.31 "Hg10 mi
7:53 AM22 °FSunny.12 mph82%30.29 "Hg10 mi
6:53 AM21 °FClear.9 mph85%30.26 "Hg10 mi
5:53 AM22 °FClear.10 mph82%30.22 "Hg10 mi
4:53 AM22 °FClear.12 mph85%30.20 "Hg10 mi
3:53 AM23 °FClear.13 mph81%30.17 "Hg10 mi
2:53 AM24 °FClear.9 mph81%30.14 "Hg10 mi
1:53 AM24 °FClear.15 mph84%30.13 "Hg10 mi
12:53 AM25 °FClear.10 mph81%30.10 "Hg10 mi
11:53 PM
Wed, Feb 10
28 °FClear.14 mph72%30.08 "Hg10 mi
10:53 PM30 °FClear.10 mph66%30.05 "Hg10 mi
9:53 PM34 °FClear.7 mph54%30.02 "Hg10 mi
8:53 PM36 °FClear.8 mph52%30.01 "Hg10 mi
7:53 PM39 °FClear.7 mph46%30.00 "Hg10 mi
6:53 PM42 °FClear.7 mph43%29.98 "Hg10 mi
5:53 PM46 °FClear.5 mph37%29.95 "Hg10 mi
4:53 PM48 °FSunny.7 mph36%29.94 "Hg10 mi
3:53 PM47 °FSunny.8 mph34%29.93 "Hg10 mi
2:53 PM46 °FSunny.10 mph35%29.93 "Hg10 mi
1:53 PM44 °FSunny.13 mph35%29.95 "Hg10 mi
12:53 PM41 °FSunny.14 mph38%30.00 "Hg10 mi
Weather by CustomWeather, © 2016

See weather overviewHow to use our weather pages